Location: ???????
(55.4362°N, 38.1183°E)
Time: 17:14:00
(UTC+00:00)

CENTAUR R/B - Pass Details

Date: 17 June 2021
Orbit: 740 x 1447 km, 63.4° (Epoch: 17 July)

Event Time Altitude Azimuth Distance (km) Brightness Sun altitude
Rises 21:15:01 0° 276° (W) 3,720 5.7 -11.1°
Reaches altitude 10° 21:17:34 10° 283° (WNW) 2,869 5.2 -11.1°
Maximum altitude 21:24:13 47° 356° (N) 1,537 4.1 -11.2°
Drops below altitude 10° 21:32:01 10° 69° (ENE) 3,364 5.6 -11.2°
Sets 21:35:15 0° 75° (ENE) 4,415 6.1 -11.1°
